Location: Star Hoppers Observatory
(42.7905°N, 83.6127°W)
Time: 03:08:13
(UTC-05:00)

Daily predictions for brighter satellites

Satellite Brightness Start Highest point End
(mag) Time Altitude Azimuth Time Altitude Azimuth Time Altitude Azimuth
USA 229 DEB 4.0 04:50:53 62° NNE 04:51:18 63° NE 04:58:28 10° SE
USA 229 4.0 04:50:57 61° NNE 04:51:24 63° NE 04:58:33 10° SE
ISS -0.1 05:16:07 14° E 05:16:07 14° E 05:16:41 10° E
Cosmos 2237 Rocket 3.6 05:22:48 25° S 05:22:48 25° S 05:25:09 10° S
SL-16 R/B 2.3 05:22:48 59° N 05:23:44 70° ENE 05:29:23 10° SSE
Feng Yun 1-1 Rocket 4.1 05:26:29 10° NNE 05:31:23 70° NNW 05:31:23 70° NNW
Cosmos 2297 Rocket 2.2 05:33:22 62° NNW 05:33:22 62° NNW 05:38:18 10° NNE
Cosmos 1842 Rocket 4.0 05:32:55 10° S 05:37:10 59° E 05:41:28 10° NNE
Cosmos 2233 Rocket 4.1 05:30:58 10° S 05:37:10 76° E 05:43:29 10° N
COSMO-SKYMED 1 2.8 05:34:34 10° SSE 05:38:52 67° ENE 05:39:28 58° NNE
USA 234 4.0 05:33:44 10° E 05:39:52 44° NNE 05:42:59 27° NNW
Cosmos 2151 4.1 05:39:27 17° NNE 05:42:23 43° ENE 05:46:25 10° SSE
ERBS 3.8 05:44:40 34° ENE 05:44:40 34° ENE 05:47:19 10° ESE
Cosmos 2227 Rocket 3.0 05:46:53 35° NNW 05:46:53 35° NNW 05:50:44 10° NNE
NOSS 3-1 (C) 4.3 05:41:10 23° NNW 05:46:08 64° NE 05:54:22 10° SE
Meteor 1-4 Rocket 3.6 05:48:27 41° NNE 05:48:27 41° NNE 05:51:04 10° NNE
Cosmos 1340 Rocket 4.4 05:44:23 13° NNE 05:47:31 33° ENE 05:51:07 10° SE
Cosmos 1271 Rocket 4.1 05:47:47 10° SSE 05:51:21 38° E 05:54:53 10° NNE
Cosmos 1500 Rocket 3.4 05:52:33 50° N 05:53:42 88° W 05:58:10 10° S
Meteor 1-28 Rocket 3.7 05:50:41 10° SSE 05:54:22 59° ENE 05:55:51 32° N
Cosmos 1816 Rocket 4.4 05:49:09 10° NNW 05:55:23 63° W 06:01:32 10° S
Ariane Rocket 3.7 05:52:06 10° NNE 05:57:08 56° E 06:02:08 10° S
SL-14 R/B 3.6 05:55:40 23° N 05:58:04 66° E 06:02:06 10° SSE
Cosmos 2346 Rocket 4.3 05:55:20 10° N 06:01:28 78° W 06:07:31 10° S
Cosmos 220 Rocket 3.9 06:01:44 35° SSW 06:03:31 73° WNW 06:07:54 10° NNE
Cosmos 1626 4.4 06:03:31 10° NNE 06:06:38 24° ENE 06:09:43 10° SE
Tsikada Rocket 4.3 06:04:33 26° NW 06:07:28 42° W 06:13:19 10° SSW
DMSP B5D1-3 4.4 06:09:02 10° S 06:14:09 71° WSW 06:19:16 10° NNW
CZ-2C R/B 4.2 06:11:19 10° NNE 06:15:25 31° E 06:19:29 10° SSE
ATLAS CENTAUR R/B 4.3 06:14:04 12° N 06:16:05 15° NNE 06:19:59 10° NE
CZ-4 R/B 3.1 06:16:55 10° NNE 06:20:41 36° E 06:24:29 10° SSE
SeaSat 1 4.1 06:20:05 10° N 06:22:19 18° NNW 06:22:19 18° NNW
CSL-04 Debris 4.5 06:18:14 10° NNE 06:23:44 70° ESE 06:29:09 10° S
SKYMED 2 4.1 06:23:04 10° SSW 06:27:03 36° W 06:28:08 31° WNW
Cosmos 1464 Rocket 4.1 06:21:16 10° S 06:27:36 84° E 06:33:55 10° N
Cosmos 1603 3.7 06:22:14 11° NNW 06:27:42 84° ENE 06:33:22 10° SSE
Cosmos 968 Rocket 3.6 06:23:23 10° SW 06:28:30 51° WNW 06:33:39 10° N
YAOGAN 1 4.4 06:28:23 10° NNE 06:32:21 34° E 06:36:17 10° SSE
Cosmos 2263 Rocket 4.4 06:29:37 10° SSE 06:34:25 29° ESE 06:39:15 10° NE
Meteor 2-12 Rocket 4.4 06:31:12 10° S 06:37:21 84° W 06:43:33 10° N
Cosmos 773 Rocket 3.9 06:32:48 10° NNW 06:38:05 73° WSW 06:43:21 10° S
Coronas F rocket 3.5 06:37:21 10° NNE 06:39:22 23° ENE 06:41:23 10° SE
Cosmos 1666 Rocket 4.0 06:40:06 10° N 06:44:32 66° E 06:48:59 10° SSE
Cosmos 1072 Rocket 4.4 06:41:19 10° SSW 06:47:26 64° W 06:53:32 10° N
Cosmos 2221 2.5 06:45:20 10° SSW 06:49:37 58° W 06:53:53 10° N
ISS -2.0 06:48:47 21° WSW 06:49:56 26° SW 06:52:42 10° SSE
CSL-04 Rocket 3.6 06:47:41 10° N 06:52:53 57° WNW 06:58:02 10° SSW
Aureole 1 4.4 06:51:43 10° SW 06:54:44 54° WNW 06:58:18 10° NNE
NOSS 3-1 (A) 4.1 06:48:26 10° NW 06:56:04 72° WSW 07:04:24 10° SSE
Cosmos 2058 3.5 06:52:41 10° NNW 06:56:26 34° W 07:00:11 10° SSW
Genesis I 3.4 06:53:49 16° NW 06:56:46 52° WSW 07:00:34 10° SSE
Cosmos 2227 4.2 06:51:29 10° SW 06:57:01 60° WNW 07:02:36 10° NNE
Cosmos 1184 Rocket 2.7 06:55:41 10° N 06:59:01 85° W 07:02:19 10° S
SPOT 3 Rocket 4.1 06:55:32 10° NNE 07:00:44 65° ESE 07:05:55 10° S
Cosmos 1777 Rocket 4.2 06:57:09 10° SW 07:02:11 48° WNW 07:07:15 10° N
ATLAS 2AS CENTAUR R/B 3.8 06:57:02 10° NNW 07:04:56 51° NE 07:12:20 10° ESE
SL-16 R/B 3.7 07:04:44 13° WNW 07:07:11 17° W 07:10:40 10° SW
SL-8 R/B 3.7 07:03:57 14° WNW 07:08:09 88° SSW 07:12:57 10° ESE
DELTA 2 R/B (1) 4.5 07:04:25 10° SW 07:09:43 47° SSE 07:15:02 10° E
Cosmos 1703 3.7 07:07:04 10° NNW 07:10:45 39° W 07:14:25 10° SSW
SL-12 R/B (Aux Motor) 4.2 07:06:45 10° WSW 07:11:29 69° NNW 07:13:42 10° ENE
TELKOM 3 3.3 07:09:30 12° W 07:11:42 44° NNW 07:13:46 10° NE
PSLV R/B 3.9 07:12:07 10° WSW 07:15:26 54° S 07:18:43 10° E
COSMO-SKYMED 1 4.5 07:14:06 10° WSW 07:15:29 11° W 07:16:42 10° WNW
IDEFIX/ARIANE 42P 2.6 07:10:36 10° N 07:15:51 67° WNW 07:21:04 10° SSW
Cosmos 1470 Rocket 4.2 07:12:42 10° N 07:16:59 59° E 07:21:15 10° SSE
Helios 1B rocket 2.4 07:13:38 10° S 07:17:44 78° WSW 07:21:52 10° NNW
Cosmos 2297 Rocket 3.9 07:15:16 10° WNW 07:17:46 13° NW 07:20:25 10° NNW
Cosmos 2228 Rocket 3.2 07:15:35 10° S 07:20:01 85° E 07:24:28 10° N
AQUARIUS 4.2 07:15:47 10° N 07:20:15 62° WNW 07:24:41 10° SSW
ERBS 3.8 07:18:03 11° WNW 07:20:43 23° SW 07:23:27 10° S
Cosmos 1356 Rocket 4.0 07:17:12 10° NNW 07:20:57 35° W 07:24:45 10° SSW
SJ-7 4.4 07:18:36 10° N 07:22:32 57° WNW 07:26:30 10° SSW
USA 234 3.4 07:16:07 10° SE 07:22:38 70° SW 07:29:12 10° NW
Cosmos 1805 Rocket 4.3 07:19:43 10° NNW 07:23:38 31° W 07:27:31 10° SSW
Cosmos 1340 Rocket 4.3 07:21:08 10° NW 07:23:43 17° W 07:26:19 10° SW
Cosmos 2344 3.9 07:17:48 10° SSW 07:25:26 79° ESE 07:34:05 10° NE
Cosmos 1271 Rocket 4.3 07:25:21 10° WSW 07:27:34 15° WNW 07:29:46 10° NNW
